CW1509 Weather Reports


Display with metric or nautical units.
time (UTC)temp
F
wind
direction
speed
MPH
gust
MPH
rain 1hr
in
rain 24hr
in
rain mn
in
humidity
%
barometer
mb
20260510160415 59 360 1.0 5.0 0.00 0.00 0.00 38 1018.6
20260510155914 59 360 0.0 4.0 0.00 0.00 0.00 36 1018.6
20260510155435 59 360 2.0 4.0 0.00 0.00 0.00 37 1018.6
20260510154956 58 360 1.0 3.0 0.00 0.00 0.00 36 1018.7
20260510154415 58 360 0.0 4.0 0.00 0.00 0.00 36 1018.7
20260510153915 58 360 2.0 4.0 0.00 0.00 0.00 36 1018.7
20260510153433 58 360 1.0 4.0 0.00 0.00 0.00 35 1018.6
20260510152913 58 360 0.0 5.0 0.00 0.00 0.00 37 1018.6
20260510152413 58 360 2.0 6.0 0.00 0.00 0.00 37 1018.6
20260510151934 58 360 1.0 3.0 0.00 0.00 0.00 38 1018.5
20260510151428 58 360 1.0 4.0 0.00 0.00 0.00 37 1018.5
20260510150929 58 360 1.0 4.0 0.00 0.00 0.00 38 1018.5
20260510150429 57 360 1.0 4.0 0.00 0.00 0.00 36 1018.4
20260510145928 57 360 1.0 5.0 0.00 0.00 0.00 37 1018.4
20260510145428 57 360 3.0 5.0 0.00 0.00 0.00 37 1018.4
20260510144445 57 360 1.0 4.0 0.00 0.00 0.00 39 1018.2
20260510143945 57 360 1.0 5.0 0.00 0.00 0.00 39 1018.0
20260510143422 57 360 1.0 4.0 0.00 0.00 0.00 39 1018.1
20260510143026 56 360 2.0 4.0 0.00 0.00 0.00 39 1018.0
20260510142421 56 360 1.0 5.0 0.00 0.00 0.00 39 1017.8
20260510140950 56 360 3.0 6.0 0.00 0.00 0.00 38 1017.6
20260510140429 56 360 2.0 6.0 0.00 0.00 0.00 39 1017.6
20260510135930 56 360 2.0 5.0 0.00 0.00 0.00 41 1017.6
20260510135430 56 360 1.0 4.0 0.00 0.00 0.00 42 1017.6
20260510134929 55 360 1.0 3.0 0.00 0.00 0.00 44 1017.5
20260510134602 55 360 1.0 3.0 0.00 0.00 0.00 44 1017.5
20260510133920 55 360 0.0 4.0 0.00 0.00 0.00 47 1017.6
20260510133422 55 360 2.0 4.0 0.00 0.00 0.00 46 1017.6
20260510132921 54 360 0.0 5.0 0.00 0.00 0.00 46 1017.6
20260510132422 54 360 2.0 5.0 0.00 0.00 0.00 46 1017.6
20260510131943 54 360 0.0 2.0 0.00 0.00 0.00 51 1017.6
20260510131442 54 360 0.0 2.0 0.00 0.00 0.00 50 1017.5
20260510130920 53 360 0.0 3.0 0.00 0.00 0.00 53 1017.3
20260510130419 53 360 0.0 3.0 0.00 0.00 0.00 53 1017.2
20260510125937 52 134 0.0 1.0 0.00 0.00 0.00 56 1017.3
20260510125415 51 103 0.0 0.0 0.00 0.00 0.00 57 1017.2
20260510124915 50 74 0.0 2.0 0.00 0.00 0.00 59 1017.1
20260510124434 50 5 0.0 2.0 0.00 0.00 0.00 61 1017.0
20260510123914 49 11 1.0 3.0 0.00 0.00 0.00 62 1016.9
20260510123414 48 35 1.0 3.0 0.00 0.00 0.00 62 1016.9
20260510122915 47 64 0.0 2.0 0.00 0.00 0.00 64 1016.9
20260510122413 46 360 0.0 2.0 0.00 0.00 0.00 66 1017.0
20260510121913 45 360 0.0 3.0 0.00 0.00 0.00 67 1017.0
20260510121414 44 360 0.0 3.0 0.00 0.00 0.00 71 1016.9
20260510120913 43 360 0.0 0.0 0.00 0.00 0.00 75 1016.9
20260510120433 42 360 0.0 0.0 0.00 0.00 0.00 77 1016.8
20260510115942 41 360 0.0 0.0 0.00 0.00 0.00 82 1016.6
20260510115422 40 360 0.0 0.0 0.00 0.00 0.00 82 1016.5
20260510114925 40 360 0.0 0.0 0.00 0.00 0.00 82 1016.4
20260510114425 40 360 0.0 0.0 0.00 0.00 0.00 82 1016.3
20260510113926 40 360 0.0 0.0 0.00 0.00 0.00 82 1016.2
20260510113427 40 360 0.0 0.0 0.00 0.00 0.00 81 1016.1
20260510112916 40 360 0.0 0.0 0.00 0.00 0.00 81 1016.2
20260510112437 40 360 0.0 0.0 0.00 0.00 0.00 80 1016.0
20260510111916 40 360 0.0 0.0 0.00 0.00 0.00 80 1016.1
20260510111435 40 360 0.0 0.0 0.00 0.00 0.00 79 1015.9
20260510110915 40 360 0.0 0.0 0.00 0.00 0.00 79 1015.8
20260510110435 40 360 0.0 0.0 0.00 0.00 0.00 78 1015.7
20260510105928 41 360 0.0 0.0 0.00 0.00 0.00 77 1015.7
20260510105428 41 360 0.0 0.0 0.00 0.00 0.00 77 1015.6
20260510104929 41 360 0.0 0.0 0.00 0.00 0.00 77 1015.5
20260510104522 41 360 0.0 0.0 0.00 0.00 0.00 77 1015.4
20260510103937 42 360 0.0 0.0 0.00 0.00 0.00 76 1015.4
20260510103415 42 360 0.0 0.0 0.00 0.00 0.00 75 1015.4
20260510102914 42 360 0.0 0.0 0.00 0.00 0.00 75 1015.3
20260510102414 42 360 0.0 0.0 0.00 0.00 0.00 74 1015.3
20260510101915 42 360 0.0 0.0 0.00 0.00 0.00 74 1015.2
20260510101417 43 360 0.0 0.0 0.00 0.00 0.00 73 1015.1
20260510100917 43 360 0.0 0.0 0.00 0.00 0.00 73 1015.0
20260510100426 43 360 0.0 0.0 0.00 0.00 0.00 73 1014.9
20260510095922 43 360 0.0 0.0 0.00 0.00 0.00 73 1014.8
20260510095423 43 360 0.0 0.0 0.00 0.00 0.00 73 1014.7
20260510094921 44 360 0.0 0.0 0.00 0.00 0.00 73 1014.7
20260510094421 44 360 0.0 0.0 0.00 0.00 0.00 73 1014.5
20260510093921 44 360 0.0 0.0 0.00 0.00 0.00 73 1014.5
20260510093419 44 360 0.0 0.0 0.00 0.00 0.00 73 1014.6
20260510092914 44 360 0.0 0.0 0.00 0.00 0.00 73 1014.5
20260510092413 44 360 0.0 0.0 0.00 0.00 0.00 73 1014.6
20260510091933 44 360 0.0 0.0 0.00 0.00 0.00 73 1014.6
20260510091412 44 360 0.0 0.0 0.00 0.00 0.00 74 1014.4
20260510090932 44 360 0.0 3.0 0.00 0.00 0.00 74 1014.3
20260510090413 44 360 0.0 3.0 0.00 0.00 0.00 74 1014.2
20260510085939 44 360 0.0 2.0 0.00 0.00 0.00 74 1014.1
20260510085420 44 360 0.0 2.0 0.00 0.00 0.00 75 1014.2
20260510084920 44 360 0.0 2.0 0.00 0.00 0.00 75 1014.1
20260510084421 44 360 0.0 4.0 0.00 0.00 0.00 75 1014.0
20260510083922 44 360 1.0 4.0 0.00 0.00 0.00 75 1014.0
20260510083421 44 360 0.0 3.0 0.00 0.00 0.00 76 1014.0
20260510082919 44 360 1.0 3.0 0.00 0.00 0.00 77 1013.9
20260510082440 44 360 0.0 1.0 0.00 0.00 0.00 77 1013.8
20260510081920 44 360 0.0 0.0 0.00 0.00 0.00 78 1013.8
20260510081419 44 360 0.0 0.0 0.00 0.00 0.00 78 1013.7
20260510080919 44 360 0.0 0.0 0.00 0.00 0.00 79 1013.6
20260510080421 44 360 0.0 0.0 0.00 0.00 0.00 79 1013.4
20260510075935 44 360 0.0 0.0 0.00 0.00 0.00 79 1013.3
20260510075435 44 360 0.0 0.0 0.00 0.00 0.00 79 1013.2
20260510074914 44 360 0.0 0.0 0.00 0.00 0.00 79 1013.1
20260510073940 44 360 0.0 0.0 0.00 0.00 0.00 79 1013.1
20260510073421 44 360 0.0 0.0 0.00 0.00 0.00 80 1013.1
20260510072922 44 360 0.0 0.0 0.00 0.00 0.00 80 1012.9
20260510072421 44 360 0.0 0.0 0.00 0.00 0.00 80 1012.9
20260510071921 44 360 0.0 0.0 0.00 0.00 0.00 79 1012.8
20260510071422 44 360 0.0 0.0 0.00 0.00 0.00 79 1012.8
20260510070923 44 360 0.0 0.0 0.00 0.00 0.00 79 1012.7
20260510070424 44 360 0.0 0.0 0.00 0.00 0.00 78 1012.6
20260510065926 44 360 0.0 0.0 0.00 0.00 0.00 77 1012.6
20260510065426 44 360 0.0 0.0 0.00 0.00 0.00 76 1012.3
20260510064935 44 360 0.0 0.0 0.00 0.00 0.00 76 1012.3
20260510064416 45 360 0.0 0.0 0.00 0.00 0.00 75 1012.2
20260510063917 45 360 0.0 0.0 0.00 0.00 0.00 75 1012.2
20260510063419 45 360 0.0 0.0 0.00 0.00 0.00 76 1012.0
20260510062919 45 360 0.0 0.0 0.00 0.00 0.00 75 1012.0
20260510062420 45 360 0.0 0.0 0.00 0.00 0.00 74 1011.9
20260510061919 46 360 0.0 0.0 0.00 0.00 0.00 74 1012.0
20260510061416 46 360 0.0 0.0 0.00 0.00 0.00 74 1011.9
20260510060913 46 360 0.0 0.0 0.00 0.00 0.00 74 1011.7
20260510060433 46 360 0.0 0.0 0.00 0.00 0.00 73 1011.6
20260510055912 46 360 0.0 0.0 0.00 0.00 0.00 73 1011.6
20260510055431 46 360 0.0 0.0 0.00 0.00 0.00 73 1011.6
20260510054911 47 360 0.0 0.0 0.00 0.00 0.00 72 1011.6
20260510054411 47 360 0.0 0.0 0.00 0.00 0.00 72 1011.5
20260510053913 47 360 0.0 0.0 0.00 0.00 0.00 71 1011.4
20260510053413 47 360 0.0 0.0 0.00 0.00 0.00 71 1011.2
20260510052915 47 360 0.0 0.0 0.00 0.00 0.00 70 1011.1
20260510052413 48 360 0.0 0.0 0.00 0.00 0.00 70 1011.1
20260510051914 48 360 0.0 0.0 0.00 0.00 0.00 69 1011.0
20260510051415 48 360 0.0 0.0 0.00 0.00 0.00 69 1010.9
20260510050915 48 360 0.0 0.0 0.00 0.00 0.00 68 1010.8
20260510050416 49 360 0.0 0.0 0.00 0.00 0.00 68 1010.7
20260510045929 49 360 0.0 0.0 0.00 0.00 0.00 67 1010.8
20260510045429 49 360 0.0 0.0 0.00 0.00 0.00 66 1010.8
20260510044929 49 360 0.0 0.0 0.00 0.00 0.00 67 1010.8
20260510044446 50 360 0.0 0.0 0.00 0.00 0.00 66 1010.7
20260510043946 50 360 0.0 0.0 0.00 0.00 0.00 66 1010.6
20260510043424 50 360 0.0 0.0 0.00 0.00 0.00 65 1010.6
20260510042922 50 360 0.0 0.0 0.00 0.00 0.00 65 1010.6
20260510042422 51 360 0.0 0.0 0.00 0.00 0.00 64 1010.6
20260510041921 51 360 0.0 0.0 0.00 0.00 0.00 64 1010.5
20260510041422 51 360 0.0 0.0 0.00 0.00 0.00 63 1010.5
20260510040922 51 360 0.0 0.0 0.00 0.00 0.00 63 1010.4
20260510040440 52 360 0.0 0.0 0.00 0.00 0.00 62 1010.5
20260510035929 52 360 0.0 0.0 0.00 0.00 0.00 62 1010.4
20260510035431 52 360 0.0 0.0 0.00 0.00 0.00 61 1010.3
20260510034913 53 360 0.0 0.0 0.00 0.00 0.00 61 1010.2
20260510034413 53 360 0.0 0.0 0.00 0.00 0.00 59 1010.2
20260510033913 53 360 0.0 0.0 0.00 0.00 0.00 59 1010.2
20260510033414 53 360 0.0 0.0 0.00 0.00 0.00 58 1010.2
20260510032915 54 360 0.0 0.0 0.00 0.00 0.00 57 1010.0
20260510032415 54 360 0.0 0.0 0.00 0.00 0.00 56 1010.0
20260510031916 54 360 0.0 0.0 0.00 0.00 0.00 56 1010.0
20260510031417 55 360 0.0 0.0 0.00 0.00 0.00 54 1010.0
20260510030917 55 360 0.0 0.0 0.00 0.00 0.00 53 1009.9
20260510030438 55 360 0.0 0.0 0.00 0.00 0.00 53 1009.8
20260510025917 55 360 0.0 0.0 0.00 0.00 0.00 52 1009.8
20260510025417 56 360 0.0 0.0 0.00 0.00 0.00 52 1009.7
20260510024938 56 360 0.0 0.0 0.00 0.00 0.00 51 1009.7
20260510024416 56 360 0.0 0.0 0.00 0.00 0.00 51 1009.7
20260510023917 56 360 0.0 0.0 0.00 0.00 0.00 51 1009.6
20260510023418 56 360 0.0 0.0 0.00 0.00 0.00 50 1009.6
20260510022917 56 360 0.0 0.0 0.00 0.00 0.00 50 1009.4
20260510022417 56 360 0.0 4.0 0.00 0.00 0.00 49 1009.3
20260510021918 57 360 0.0 4.0 0.00 0.00 0.00 50 1009.1
20260510021438 57 360 0.0 5.0 0.00 0.00 0.00 50 1009.1
20260510020939 57 360 0.0 5.0 0.00 0.00 0.00 49 1008.9
20260510020417 57 360 1.0 4.0 0.00 0.00 0.00 49 1008.9
20260510015917 57 360 2.0 4.0 0.00 0.00 0.00 49 1008.8
20260510015417 57 360 1.0 4.0 0.00 0.00 0.00 49 1008.6
20260510014916 58 360 1.0 3.0 0.00 0.00 0.00 49 1008.4
20260510014417 58 360 1.0 5.0 0.00 0.00 0.00 48 1008.3
20260510013934 58 360 2.0 5.0 0.00 0.00 0.00 48 1008.1
20260510013438 58 360 2.0 6.0 0.00 0.00 0.00 49 1008.0
20260510012938 58 360 1.0 6.0 0.00 0.00 0.00 48 1007.9
20260510012450 59 360 1.0 5.0 0.00 0.00 0.00 49 1007.8
20260510011948 59 360 1.0 4.0 0.00 0.00 0.00 49 1007.7
20260510011425 59 360 1.0 4.0 0.00 0.00 0.00 49 1007.6
20260510010927 59 360 2.0 4.0 0.00 0.00 0.00 49 1007.5
20260510010444 60 360 2.0 5.0 0.00 0.00 0.00 48 1007.3
20260510005924 60 360 2.0 5.0 0.00 0.00 0.00 47 1007.3
20260510005444 60 360 2.0 6.0 0.00 0.00 0.00 47 1007.1
20260510004920 61 360 2.0 6.0 0.00 0.00 0.00 46 1007.0
20260510004449 61 360 3.0 6.0 0.00 0.00 0.00 46 1006.9
20260510003929 61 360 2.0 6.0 0.00 0.00 0.00 45 1006.7
20260510003431 62 360 2.0 8.0 0.00 0.00 0.00 45 1006.7
20260510002931 62 360 3.0 9.0 0.00 0.00 0.00 45 1006.5
20260510002412 63 360 4.0 9.0 0.00 0.00 0.00 44 1006.5
20260510001915 63 360 4.0 8.0 0.00 0.00 0.00 43 1006.4
20260510001435 64 360 3.0 8.0 0.00 0.00 0.00 43 1006.2
20260510000916 65 360 4.0 8.0 0.00 0.00 0.00 42 1006.2
20260510000415 65 331 3.0 8.0 0.00 0.00 0.00 41 1006.1
20260509235918 66 315 3.0 8.0 0.00 0.00 0.00 40 1006.0
20260509235418 67 296 3.0 8.0 0.00 0.00 0.00 39 1005.8
20260509234917 67 302 2.0 8.0 0.00 0.00 0.00 38 1005.7
20260509234418 68 274 4.0 11.0 0.00 0.00 0.00 37 1005.6
20260509233917 69 286 4.0 11.0 0.00 0.00 0.00 36 1005.4
20260509233418 69 5 1.0 5.0 0.00 0.00 0.00 36 1005.2
20260509232919 70 15 3.0 7.0 0.00 0.00 0.00 35 1005.0
20260509232420 70 289 2.0 8.0 0.00 0.00 0.00 35 1004.9
20260509231922 71 302 2.0 6.0 0.00 0.00 0.00 34 1004.8
20260509231441 71 327 3.0 5.0 0.00 0.00 0.00 33 1004.7
20260509230922 71 305 3.0 8.0 0.00 0.00 0.00 33 1004.6
20260509230423 71 290 2.0 9.0 0.00 0.00 0.00 34 1004.5
20260509225924 71 327 3.0 9.0 0.00 0.00 0.00 35 1004.5
20260509225444 72 273 1.0 6.0 0.00 0.00 0.00 36 1004.4
20260509224923 72 295 1.0 9.0 0.00 0.00 0.00 34 1004.3
20260509224423 72 252 3.0 8.0 0.00 0.00 0.00 33 1004.1
20260509223921 72 261 2.0 9.0 0.00 0.00 0.00 34 1004.1
20260509223421 72 238 3.0 10.0 0.00 0.00 0.00 33 1004.2
20260509222941 73 259 4.0 9.0 0.00 0.00 0.00 33 1004.2
20260509222420 73 311 1.0 9.0 0.00 0.00 0.00 35 1004.1
20260509221941 73 275 2.0 6.0 0.00 0.00 0.00 33 1004.0
20260509221440 72 300 3.0 9.0 0.00 0.00 0.00 33 1004.0
20260509220919 72 294 2.0 9.0 0.00 0.00 0.00 36 1004.0
20260509220419 72 266 3.0 9.0 0.00 0.00 0.00 33 1004.1
20260509215918 72 360 3.0 9.0 0.00 0.00 0.00 35 1004.0
20260509215416 72 245 3.0 8.0 0.00 0.00 0.00 35 1004.1
20260509214917 72 275 3.0 14.0 0.00 0.00 0.00 36 1004.0
20260509214418 71 321 3.0 14.0 0.00 0.00 0.00 36 1004.0
20260509213920 72 232 7.0 11.0 0.00 0.00 0.00 36 1003.8
20260509213420 72 216 4.0 13.0 0.00 0.00 0.00 38 1003.9
20260509212922 71 232 6.0 13.0 0.00 0.00 0.00 39 1003.7
20260509212424 71 290 3.0 10.0 0.00 0.00 0.00 42 1003.8
20260509211925 71 242 5.0 10.0 0.00 0.00 0.00 42 1003.8
20260509211444 71 237 4.0 10.0 0.00 0.00 0.00 43 1003.8
20260509210925 71 265 4.0 8.0 0.00 0.00 0.00 43 1003.9
20260509210445 71 245 4.0 8.0 0.00 0.00 0.00 43 1003.8
20260509205924 71 230 3.0 9.0 0.00 0.00 0.00 44 1003.8
20260509205425 71 234 4.0 6.0 0.00 0.00 0.00 44 1003.8
20260509204946 71 265 3.0 7.0 0.00 0.00 0.00 44 1003.8
20260509204447 71 259 4.0 7.0 0.00 0.00 0.00 44 1003.8
20260509203925 71 277 3.0 7.0 0.00 0.00 0.00 44 1003.7
20260509203427 71 222 1.0 6.0 0.00 0.00 0.00 44 1003.8
20260509202927 71 171 2.0 7.0 0.00 0.00 0.00 46 1003.8
20260509202447 71 269 2.0 6.0 0.00 0.00 0.00 44 1003.9
20260509201927 71 213 2.0 8.0 0.00 0.00 0.00 43 1004.0
20260509201427 70 240 4.0 9.0 0.00 0.00 0.00 43 1004.2
20260509200943 70 163 4.0 9.0 0.00 0.00 0.00 44 1004.1
20260509200422 70 270 3.0 8.0 0.00 0.00 0.00 43 1004.2
20260509195923 69 261 3.0 7.0 0.00 0.00 0.00 43 1004.3
20260509195423 69 291 2.0 4.0 0.00 0.00 0.00 44 1004.2
20260509194924 68 222 2.0 5.0 0.00 0.00 0.00 48 1004.4
20260509194445 67 232 2.0 5.0 0.00 0.00 0.00 44 1004.5
20260509193925 67 232 1.0 4.0 0.00 0.00 0.00 43 1004.6
20260509193424 67 248 2.0 4.0 0.00 0.00 0.00 45 1004.7
20260509192923 67 236 1.0 5.0 0.00 0.00 0.00 46 1004.7
20260509192421 67 244 3.0 5.0 0.00 0.00 0.00 44 1004.7
20260509191922 67 313 1.0 4.0 0.00 0.00 0.00 44 1004.9
20260509191444 67 258 3.0 4.0 0.00 0.00 0.00 42 1004.8
20260509190922 68 242 1.0 4.0 0.00 0.00 0.00 43 1004.9
20260509190442 68 240 1.0 4.0 0.00 0.00 0.00 43 1004.8
20260509185921 68 255 1.0 3.0 0.00 0.00 0.00 43 1004.8
20260509185441 68 274 1.0 9.0 0.00 0.00 0.00 41 1004.9
20260509184918 69 308 2.0 9.0 0.00 0.00 0.00 42 1004.9
20260509184418 69 253 2.0 7.0 0.00 0.00 0.00 42 1004.8
20260509183917 69 254 2.0 6.0 0.00 0.00 0.00 41 1004.9
20260509183417 69 263 1.0 5.0 0.00 0.00 0.00 41 1004.7
20260509182935 70 344 2.0 7.0 0.00 0.00 0.00 41 1004.5
20260509182413 70 274 3.0 7.0 0.00 0.00 0.00 44 1004.5
20260509181914 70 263 3.0 6.0 0.00 0.00 0.00 47 1004.4
20260509181415 70 277 2.0 4.0 0.00 0.00 0.00 47 1004.3
20260509180916 70 300 2.0 5.0 0.00 0.00 0.00 47 1004.3
20260509180416 70 266 1.0 13.0 0.00 0.00 0.00 48 1004.2
20260509175915 70 171 4.0 13.0 0.00 0.00 0.00 49 1004.2
20260509175435 70 266 2.0 4.0 0.00 0.00 0.00 46 1004.2
20260509174955 70 253 1.0 5.0 0.00 0.00 0.00 47 1004.1
20260509174436 70 113 2.0 9.0 0.00 0.00 0.00 51 1004.0
20260509173914 70 256 5.0 9.0 0.00 0.00 0.00 49 1004.1
20260509173414 69 232 3.0 7.0 0.00 0.00 0.00 50 1003.9
20260509172916 69 227 3.0 13.0 0.00 0.00 0.00 54 1004.0
20260509172420 69 175 6.0 13.0 0.00 0.00 0.00 53 1004.1
20260509171935 69 101 4.0 10.0 0.00 0.00 0.00 56 1004.0
20260509171413 68 188 5.0 12.0 0.00 0.00 0.00 54 1004.0
20260509170914 68 251 5.0 11.0 0.00 0.00 0.00 56 1004.0
20260509170412 68 256 5.0 9.0 0.00 0.00 0.00 57 1004.0
20260509165913 68 200 4.0 7.0 0.00 0.00 0.00 57 1004.0
20260509165431 68 267 2.0 8.0 0.00 0.00 0.00 58 1004.0
20260509164912 67 238 2.0 10.0 0.00 0.00 0.00 60 1004.2
20260509164413 67 259 5.0 9.0 0.00 0.00 0.00 58 1004.3
20260509163914 67 277 5.0 9.0 0.00 0.00 0.00 59 1004.4
20260509163415 67 280 2.0 9.0 0.00 0.00 0.00 59 1004.5
20260509162937 67 234 4.0 11.0 0.00 0.00 0.00 58 1004.4
20260509162415 67 278 4.0 10.0 0.00 0.00 0.00 59 1004.5
20260509161914 67 265 3.0 9.0 0.00 0.00 0.00 60 1004.4
20260509161416 67 292 2.0 10.0 0.00 0.00 0.00 60 1004.4
20260509160912 67 185 4.0 10.0 0.00 0.00 0.00 59 1004.4